Location: *
(2.5500°S, 65.9667°W)
Time: 06:38:20
(UTC+00:00)

Explorer 7 - Pass Details

Date: 17 April 2024
Orbit: 467 x 625 km, 50.3° (Epoch: 26 May)

Event Time Altitude Azimuth Distance (km) Brightness Sun altitude
Rises 13:19:40 0° 219° (SW) 2,744 10.0 42.4°
Reaches altitude 10° 13:21:53 10° 220° (SW) 1,873 9.3 42.9°
Maximum altitude 13:26:11 79° 307° (NW) 604 7.7 44.0°
Drops below altitude 10° 13:30:40 10° 33° (NNE) 1,952 10.3 45.0°
Sets 13:33:00 0° 35° (NE) 2,870 11.0 45.6°
